Temperature
26 24 23 23 24 25 25 24 23 23 23 21 19 19 18 18 18 17 17 18 18 19 19 19 19 19 19 19 19 19 19 18 18 18 18 18 17 17 17 17 17 16 16 16
24 23 25 27 27 27 25 24 23 23 22 21 19 19 19 18 18 18 17 18 18 19 19 19 19 19 19 19 19 19 19 18 18 18 18 18 17 17 17 16 16 16 16 16
24 25 27 28 27 26 25 24 23 22 22 21 20 19 19 19 19 19 18 18 19 19 19 19 19 19 19 19 19 19 19 18 18 18 18 17 17 17 16 16 16 16 16 15
25 27 28 27 27 26 24 25 24 23 20 19 20 19 19 19 18 19 19 19 19 19 19 19 19 19 19 19 19 19 19 18 18 18 17 17 17 16 16 16 16 15 15 15
25 26 27 27 27 26 24 24 23 21 19 19 19 18 18 19 18 18 19 19 20 20 20 20 20 20 19 19 19 19 19 18 18 17 17 17 16 16 16 15 15 15 15 15
26 26 26 26 26 26 24 22 20 18 17 18 19 19 18 18 19 19 19 20 20 20 20 20 20 20 20 19 19 19 18 18 17 17 17 16 16 16 15 15 15 15 14 14
25 25 25 26 25 24 23 20 19 19 18 18 19 19 18 19 20 20 20 20 20 20 20 20 20 20 20 19 19 19 18 18 17 17 16 16 16 15 15 15 14 14 14 14
23 24 25 25 25 24 23 21 20 20 19 18 19 19 19 21 21 22 21 21 21 21 21 21 21 20 20 20 19 19 18 18 17 17 16 16 16 15 15 15 14 14 14 13
23 23 25 26 26 24 23 21 20 18 18 18 18 19 20 21 21 21 21 21 21 21 21 21 21 21 20 20 20 19 19 18 17 17 16 16 15 15 15 14 14 14 13 13
23 23 24 25 25 24 23 21 19 18 18 18 19 18 19 20 20 21 20 21 21 22 22 22 21 21 21 20 20 19 19 18 18 17 16 16 15 15 15 14 14 14 13 13
23 22 23 23 24 24 23 22 20 18 18 18 18 18 20 20 20 20 21 22 22 22 22 22 22 21 21 20 20 19 19 18 18 17 17 16 16 15 15 14 14 14 13 13
22 20 21 22 23 24 23 22 20 19 19 18 18 19 22 21 21 21 22 22 23 23 23 22 22 21 21 20 20 19 19 18 18 17 17 16 16 15 15 14 14 14 13 13
22 20 20 21 21 22 23 23 21 18 18 18 18 20 22 21 21 22 23 23 23 23 23 22 22 21 21 20 20 19 19 18 18 17 17 16 16 15 15 15 14 14 13 13
22 20 20 21 21 22 22 23 23 20 18 19 19 21 22 21 21 21 23 24 24 23 23 22 22 21 21 21 20 20 19 18 18 17 17 16 16 16 15 15 14 14 14 13
21 21 22 22 23 23 23 24 24 22 20 20 21 21 21 21 21 22 23 23 23 22 22 22 22 21 21 21 20 20 19 19 18 18 17 17 16 16 15 15 14 14 14 13
19 20 21 22 23 23 24 24 24 24 23 22 22 21 21 22 22 22 23 23 22 22 22 22 22 22 21 21 20 20 19 19 18 18 17 17 16 16 15 15 14 14 14 13
18 19 20 20 22 23 22 22 23 22 22 21 20 20 20 20 20 21 22 22 22 23 23 23 22 22 22 21 21 20 20 19 18 18 17 17 16 16 15 15 15 14 14 14
18 18 17 19 21 22 21 22 23 22 21 20 20 20 20 20 22 23 23 23 23 23 23 23 23 22 22 21 21 20 20 19 18 18 18 17 17 16 16 15 15 14 14 14
18 18 18 18 19 21 21 21 21 21 19 19 19 20 20 21 21 21 23 24 24 24 24 23 23 22 22 21 21 20 20 19 19 18 18 17 17 16 16 15 15 15 14 14
17 17 17 18 19 20 20 21 21 21 19 18 18 18 19 20 18 19 22 23 24 24 23 23 23 22 22 21 21 20 20 19 19 18 18 17 17 16 16 15 15 15 14 14
17 17 17 17 18 19 19 19 20 19 19 18 18 19 19 18 19 21 22 23 23 23 23 23 22 22 22 21 21 20 20 19 19 18 18 17 17 16 16 15 15 15 14 14
17 17 16 16 17 18 18 18 18 17 18 18 19 19 19 20 20 21 22 22 22 22 22 22 22 21 21 21 20 20 20 19 18 18 17 17 16 16 16 15 15 15 14 14
17 16 15 16 16 16 17 17 18 18 18 19 19 20 20 20 20 20 21 21 21 21 21 21 21 21 20 20 20 19 19 18 18 17 17 17 16 16 15 15 15 14 14 14
17 16 15 15 15 16 17 18 18 19 19 19 19 19 19 19 19 20 20 20 20 20 20 20 20 20 20 19 19 18 18 18 17 17 16 16 16 15 15 15 14 14 14 14
17 16 15 15 15 16 17 18 18 19 19 19 18 18 19 19 19 19 19 19 19 19 19 19 19 19 18 18 18 17 17 17 16 16 16 15 15 15 14 14 14 14 14 13
16 16 16 15 16 15 17 19 19 18 18 18 18 18 18 18 18 18 18 18 18 17 17 17 17 17 17 17 16 16 16 15 15 15 15 14 14 14 13 13 13 13 13 13
Wind_Speed
4 0 7 12 10 10 5 3 2 1 2 4 5 4 5 6 6 5 4 6 6 7 5 6 7 9 9 8 8 7 7 5 4 3 3 3 2 1 1 2 4 5 6 6
4 9 17 14 10 5 2 3 1 1 2 4 4 1 3 6 7 8 9 8 8 7 6 7 7 8 8 8 8 8 7 5 4 3 2 2 2 1 2 1 2 2 4 6
9 11 11 7 4 1 1 3 4 5 2 4 4 3 1 2 4 6 8 8 8 10 10 10 10 8 8 8 8 8 7 6 5 4 3 4 4 4 3 3 2 1 2 3
7 9 6 3 2 3 1 1 6 7 5 0 2 1 4 4 3 5 7 8 10 10 10 10 10 10 9 9 8 8 7 7 5 5 5 5 4 3 1 1 1 2 2 0
5 5 2 2 1 3 3 4 5 4 5 3 2 2 5 2 5 8 10 11 11 11 11 11 12 11 10 10 9 8 8 7 6 6 7 6 4 3 1 1 2 3 3 3
5 4 1 2 1 4 6 6 6 6 5 3 2 2 4 5 8 9 9 11 12 12 11 11 11 10 9 9 9 8 8 7 6 7 7 7 6 4 3 2 2 2 2 3
6 5 3 0 2 2 4 6 5 6 5 2 3 2 7 8 8 11 12 12 13 13 12 11 12 12 11 11 10 9 9 7 7 7 7 7 6 5 4 3 2 1 1 1
2 6 4 2 4 4 2 7 6 4 3 3 3 3 7 6 8 11 12 12 13 13 13 13 14 13 13 13 12 11 10 8 8 7 6 6 6 5 3 3 3 2 2 2
5 6 4 2 2 6 3 3 6 6 2 2 4 5 6 1 7 9 11 12 13 14 14 14 13 13 13 13 12 12 11 9 8 8 7 6 6 5 4 3 2 2 2 2
5 3 5 2 3 0 5 6 5 5 4 1 4 4 5 6 9 10 12 13 13 13 13 13 12 12 11 11 10 11 11 10 8 8 7 6 6 6 5 4 3 3 3 2
3 3 3 3 2 4 2 3 4 4 6 6 4 7 9 13 12 13 14 15 15 15 15 14 12 11 11 11 11 10 10 8 8 8 7 7 6 5 5 4 4 3 3 3
2 4 2 5 5 3 4 6 7 5 4 5 5 8 8 13 14 14 14 14 14 15 14 13 12 11 11 12 11 11 10 9 8 8 7 7 6 5 4 4 4 4 4 4
2 5 3 6 7 4 2 3 5 6 5 5 5 7 4 8 10 12 12 13 12 12 12 11 12 12 12 12 11 10 10 9 8 8 7 7 6 6 6 5 5 4 4 4
4 3 6 8 8 6 5 5 4 6 4 5 8 8 6 8 10 11 12 12 12 13 14 13 13 12 12 12 11 11 10 9 9 8 8 7 7 7 7 6 6 5 5 5
5 2 3 6 6 4 5 6 5 5 7 8 9 9 11 12 13 12 12 12 13 14 15 15 15 13 12 11 10 10 9 9 9 9 8 8 7 7 6 6 6 6 5 6
4 3 1 5 5 4 5 6 6 6 4 5 4 7 8 7 6 7 10 13 14 15 16 16 15 14 14 13 12 10 10 9 9 9 9 8 7 7 6 6 6 5 5 5
3 4 2 4 6 4 5 5 2 0 0 3 4 5 1 4 7 10 11 12 15 16 16 17 16 16 15 14 13 12 11 9 9 9 8 8 7 7 7 6 6 6 6 5
6 5 4 2 2 4 7 3 1 5 5 4 2 2 3 6 7 8 9 11 12 14 15 15 14 13 12 11 10 10 9 9 9 9 8 8 7 7 7 6 6 6 5 6
5 7 4 3 3 5 5 4 3 2 2 5 1 2 3 3 6 1 3 7 11 13 12 12 13 12 11 11 11 10 9 9 9 9 9 8 8 8 7 7 7 6 5 6
5 5 5 3 3 4 5 6 5 3 2 6 3 3 4 6 3 4 4 3 6 7 7 9 9 9 10 11 10 10 9 9 9 10 9 8 8 8 8 8 7 6 6 7
2 3 3 3 3 5 3 7 5 3 4 4 1 3 4 3 3 4 2 2 4 5 6 7 8 9 10 9 10 10 9 10 10 8 7 7 7 7 7 7 6 6 6 7
4 3 2 3 3 6 2 3 2 4 3 2 0 2 3 1 1 1 2 2 3 3 3 6 7 6 6 8 9 8 9 8 7 6 6 6 7 6 6 6 7 6 7 7
4 6 5 6 6 5 2 3 4 3 2 2 1 1 3 2 2 1 2 3 3 3 3 4 6 6 4 5 7 8 7 5 5 5 5 5 6 6 6 6 7 6 6 6
2 3 4 2 3 3 1 1 1 2 2 2 1 2 3 3 1 3 4 4 3 2 2 3 4 5 4 3 3 4 3 3 4 5 5 4 5 5 5 5 5 6 7 7
4 4 4 2 3 1 3 4 5 2 1 1 3 5 5 6 5 4 4 3 3 2 3 4 4 3 3 3 3 2 1 1 2 3 4 4 4 5 6 6 6 8 8 9
2 5 7 7 8 6 4 4 5 4 3 5 7 7 7 8 8 8 6 5 5 5 5 5 4 4 4 4 4 3 3 2 1 3 4 4 4 5 5 7 8 11 12 15
Wind_Direction
277 197 253 249 229 222 224 197 204 222 166 99 113 136 156 167 165 156 175 182 184 167 187 175 150 147 138 131 127 121 115 113 107 97 98 102 103 108 112 149 164 161 149 138
320 268 253 256 262 247 205 164 155 118 134 116 126 157 176 172 177 180 184 181 184 176 172 172 163 153 145 142 135 128 126 129 125 122 131 132 125 111 110 83 98 138 138 138
225 255 267 269 283 28 90 164 173 164 115 78 100 15 297 209 176 179 178 175 183 176 175 171 166 161 155 153 148 143 141 136 129 118 95 77 63 52 46 46 37 28 108 138
253 266 284 307 322 94 59 138 138 135 125 102 112 183 269 220 199 186 182 184 185 181 175 170 167 166 165 163 154 149 144 140 137 123 110 110 110 108 124 124 35 4 15 354
269 286 322 338 344 104 140 107 83 100 106 76 36 104 284 176 196 204 193 189 186 182 180 178 176 172 170 165 159 153 146 144 141 134 129 120 118 134 132 82 47 19 4 13
262 282 218 210 32 112 126 80 51 48 68 48 274 144 264 218 203 196 189 184 182 183 184 183 178 169 167 163 159 154 150 154 151 140 134 133 134 128 103 76 51 23 15 22
308 314 311 166 67 56 89 82 27 2 11 274 270 192 246 235 199 185 182 181 181 181 180 180 175 173 172 170 167 161 157 159 157 148 145 146 145 136 133 140 127 103 48 19
253 290 267 207 171 172 157 133 153 203 239 286 315 265 260 244 191 172 171 173 179 182 184 186 183 178 177 175 171 166 165 163 164 159 160 155 147 143 153 163 163 167 184 203
196 248 271 244 170 142 138 162 162 136 109 21 308 308 317 147 156 163 170 174 182 187 187 187 184 178 176 175 175 172 167 165 170 168 162 160 158 159 170 179 170 182 201 198
168 247 291 296 68 14 161 152 98 113 140 201 289 276 236 208 190 182 181 187 193 190 189 186 183 179 176 172 169 166 164 168 172 170 168 164 169 170 172 169 180 198 212 212
134 171 304 355 194 210 152 145 128 137 154 154 215 258 221 204 198 192 196 195 193 189 188 186 181 174 166 161 161 163 166 167 168 170 168 162 171 171 167 172 192 200 209 214
180 151 222 264 268 245 194 186 150 155 199 168 178 257 240 198 198 195 198 200 194 187 183 177 169 161 160 161 164 167 170 172 176 174 169 171 174 172 177 193 205 200 205 217
152 123 85 343 328 325 258 217 163 146 137 162 177 253 247 193 195 199 197 195 189 177 170 164 162 164 167 167 168 170 173 176 176 169 167 172 179 184 195 206 211 211 215 226
128 133 165 196 222 233 249 250 193 139 162 198 211 226 229 202 199 199 196 188 176 169 166 163 165 170 171 171 171 171 176 176 170 166 170 181 193 198 204 208 212 218 220 226
110 146 226 231 228 217 233 253 245 215 200 195 223 213 221 208 198 192 183 171 163 165 167 169 170 172 173 173 174 174 175 175 169 168 178 195 201 202 203 210 219 226 229 231
96 142 348 307 285 279 285 287 272 255 232 224 212 232 238 200 173 165 164 163 168 172 173 173 173 173 176 177 178 177 178 179 172 176 191 198 197 200 207 216 222 228 235 239
149 135 121 275 299 347 302 276 272 96 50 149 186 237 211 131 158 167 170 169 173 175 175 176 179 180 182 182 179 180 183 178 177 187 196 198 197 204 214 217 215 224 231 234
151 138 148 220 3 252 246 260 45 99 60 51 117 86 133 168 181 167 164 165 170 177 179 181 181 182 183 180 180 179 175 176 184 193 200 201 199 208 213 214 221 228 228 232
150 148 147 153 208 261 292 328 352 109 35 352 25 94 63 74 68 45 202 172 175 178 179 182 185 181 177 179 177 172 179 183 188 198 204 206 203 207 211 218 227 228 226 236
56 103 132 146 173 231 262 308 315 99 13 328 13 61 63 80 103 253 257 191 170 170 172 174 174 173 176 181 169 170 184 188 200 205 206 206 203 205 213 221 228 229 226 236
28 48 132 158 197 250 268 322 3 107 240 285 20 71 69 92 197 246 280 190 161 161 165 162 161 172 187 179 166 175 182 198 205 201 200 201 203 209 217 225 231 233 234 242
171 158 176 142 181 239 285 27 129 195 224 265 100 107 86 62 324 19 95 118 120 131 146 154 159 175 181 170 166 177 195 205 191 185 194 205 212 219 220 224 239 239 235 243
185 182 175 180 210 243 222 186 216 173 168 238 133 49 88 57 10 29 83 105 127 133 145 157 160 158 161 167 167 184 211 198 183 188 205 217 224 230 230 229 243 252 246 244
243 144 125 144 253 248 235 186 211 145 157 245 135 129 122 130 97 67 80 83 76 83 105 117 130 148 166 167 167 189 196 174 174 195 218 230 239 252 255 250 246 250 254 253
218 155 135 153 213 210 285 225 208 180 145 108 97 102 105 102 87 85 79 71 68 59 61 83 107 115 98 78 66 37 39 130 194 234 246 253 252 258 269 268 258 254 251 249
226 172 166 193 199 171 207 215 176 143 130 129 113 87 78 92 92 85 73 59 59 57 60 67 70 75 75 74 51 24 16 31 6 308 300 290 284 279 277 281 288 276 264 268
Height
1503 1508 1511 1503 1500 1502 1502 1507 1510 1508 1503 1508 1513 1516 1517 1517 1516 1516 1518 1519 1520 1521 1523 1525 1527 1529 1531 1532 1534 1535 1537 1538 1540 1541 1541 1542 1543 1543 1543 1543 1544 1544 1544 1544
1508 1509 1495 1491 1491 1493 1498 1505 1508 1507 1504 1510 1516 1516 1514 1515 1515 1515 1517 1518 1519 1522 1524 1526 1527 1529 1531 1532 1534 1535 1536 1539 1539 1540 1541 1541 1542 1542 1543 1543 1543 1543 1543 1543
1508 1497 1487 1488 1491 1495 1499 1503 1505 1508 1507 1509 1514 1519 1515 1513 1513 1514 1516 1516 1519 1521 1524 1526 1527 1529 1531 1532 1533 1534 1536 1538 1539 1540 1540 1540 1541 1541 1542 1542 1542 1542 1542 1542
1498 1489 1486 1487 1490 1492 1504 1495 1496 1502 1514 1523 1519 1532 1519 1513 1512 1512 1514 1515 1517 1520 1523 1525 1527 1528 1530 1531 1533 1534 1536 1537 1538 1539 1539 1539 1540 1540 1540 1540 1540 1540 1540 1540
1496 1488 1487 1489 1488 1490 1497 1495 1499 1504 1515 1524 1523 1530 1524 1513 1515 1512 1512 1513 1515 1518 1521 1523 1525 1527 1529 1531 1533 1534 1535 1536 1537 1538 1538 1538 1538 1538 1538 1538 1538 1538 1538 1537
1489 1484 1484 1484 1483 1486 1492 1499 1506 1514 1522 1534 1527 1530 1527 1515 1510 1508 1508 1510 1513 1516 1519 1522 1524 1527 1528 1530 1532 1533 1534 1535 1536 1537 1537 1536 1536 1536 1536 1536 1536 1536 1535 1535
1495 1487 1483 1482 1487 1489 1493 1512 1531 1534 1540 1538 1523 1525 1521 1503 1500 1501 1504 1507 1510 1514 1517 1520 1523 1525 1527 1529 1530 1531 1533 1534 1535 1535 1535 1534 1534 1534 1534 1534 1534 1533 1533 1532
1506 1504 1485 1482 1486 1493 1496 1506 1530 1541 1542 1537 1524 1525 1511 1495 1494 1497 1500 1504 1508 1512 1514 1517 1520 1522 1524 1526 1528 1530 1531 1532 1533 1533 1533 1533 1532 1532 1532 1532 1531 1531 1530 1530
1504 1501 1482 1480 1480 1486 1496 1504 1506 1525 1533 1539 1530 1517 1503 1493 1495 1496 1499 1502 1505 1508 1511 1514 1517 1520 1522 1524 1526 1528 1529 1531 1531 1531 1531 1531 1531 1530 1530 1530 1529 1529 1528 1528
1491 1500 1486 1481 1480 1483 1487 1495 1511 1524 1538 1543 1533 1526 1517 1502 1498 1496 1497 1499 1501 1504 1508 1511 1514 1516 1519 1521 1524 1526 1527 1528 1529 1529 1529 1529 1528 1528 1528 1527 1527 1526 1526 1525
1486 1500 1495 1488 1489 1490 1490 1495 1504 1517 1522 1536 1543 1527 1493 1492 1491 1492 1493 1494 1497 1500 1504 1507 1510 1513 1516 1519 1521 1523 1525 1526 1526 1527 1527 1527 1526 1526 1526 1525 1524 1524 1523 1522
1484 1497 1503 1493 1483 1480 1483 1488 1498 1514 1518 1520 1527 1517 1478 1480 1482 1485 1487 1490 1493 1496 1500 1503 1507 1511 1514 1516 1519 1520 1522 1523 1524 1524 1525 1524 1524 1524 1523 1523 1522 1521 1520 1519
1481 1495 1510 1507 1499 1486 1485 1483 1487 1498 1510 1517 1523 1508 1474 1476 1478 1480 1483 1485 1489 1493 1497 1501 1504 1508 1510 1513 1515 1517 1519 1520 1521 1522 1522 1522 1521 1521 1521 1520 1519 1518 1517 1516
1475 1490 1501 1507 1500 1488 1486 1481 1480 1492 1507 1509 1503 1492 1478 1475 1475 1476 1478 1481 1485 1489 1493 1497 1501 1504 1507 1510 1512 1514 1516 1517 1518 1519 1519 1519 1519 1518 1518 1517 1516 1515 1514 1513
1474 1487 1484 1483 1478 1478 1478 1476 1475 1481 1486 1494 1488 1484 1475 1470 1469 1470 1473 1477 1482 1486 1490 1493 1497 1500 1504 1506 1509 1510 1512 1514 1514 1515 1516 1516 1516 1515 1515 1514 1513 1512 1511 1510
1474 1483 1484 1483 1475 1474 1475 1471 1470 1471 1473 1476 1475 1476 1464 1463 1466 1469 1472 1475 1479 1482 1486 1490 1494 1497 1500 1502 1505 1507 1508 1510 1511 1512 1512 1512 1512 1512 1512 1511 1510 1509 1508 1507
1478 1483 1490 1492 1479 1478 1485 1475 1471 1472 1470 1471 1477 1473 1464 1466 1467 1468 1471 1473 1475 1479 1482 1486 1489 1492 1495 1498 1500 1503 1505 1506 1507 1508 1508 1509 1509 1509 1509 1508 1507 1506 1505 1503
1475 1482 1490 1493 1488 1497 1482 1467 1465 1467 1469 1467 1466 1464 1463 1463 1463 1465 1468 1471 1473 1476 1479 1482 1485 1489 1492 1495 1497 1500 1501 1502 1503 1504 1505 1505 1505 1505 1505 1505 1504 1502 1501 1500
1467 1477 1488 1495 1496 1488 1475 1467 1467 1469 1475 1469 1466 1463 1462 1462 1465 1468 1469 1470 1471 1474 1476 1479 1482 1485 1488 1491 1493 1496 1497 1498 1499 1500 1501 1501 1502 1502 1501 1500 1500 1499 1497 1495
1469 1472 1484 1491 1494 1495 1481 1467 1465 1468 1478 1470 1467 1465 1464 1464 1473 1472 1469 1470 1471 1472 1474 1477 1480 1482 1485 1487 1489 1491 1493 1494 1495 1496 1497 1498 1498 1498 1497 1496 1495 1494 1493 1491
1479 1481 1485 1490 1492 1485 1473 1468 1466 1482 1481 1471 1468 1465 1465 1467 1469 1468 1468 1469 1470 1471 1473 1475 1477 1479 1481 1483 1485 1487 1489 1490 1492 1493 1493 1494 1494 1494 1493 1492 1491 1489 1488 1486
1479 1484 1487 1489 1493 1487 1469 1468 1472 1475 1471 1469 1467 1466 1467 1468 1468 1466 1466 1467 1468 1470 1471 1473 1474 1476 1478 1480 1482 1483 1485 1487 1488 1489 1489 1490 1489 1489 1488 1487 1486 1484 1483 1481
1473 1474 1477 1480 1480 1470 1465 1465 1467 1468 1469 1468 1467 1467 1467 1469 1468 1467 1467 1467 1468 1470 1471 1472 1473 1474 1476 1477 1479 1480 1482 1484 1485 1485 1485 1485 1485 1484 1483 1482 1481 1479 1477 1475
1467 1466 1471 1474 1471 1467 1465 1465 1466 1467 1468 1469 1468 1469 1468 1469 1469 1467 1467 1468 1470 1470 1470 1471 1472 1473 1474 1475 1477 1478 1480 1481 1481 1481 1481 1481 1480 1479 1478 1477 1475 1473 1471 1469
1462 1464 1469 1471 1470 1468 1466 1465 1465 1466 1468 1469 1470 1470 1469 1469 1469 1468 1468 1469 1470 1470 1471 1471 1471 1472 1473 1474 1475 1477 1478 1478 1478 1478 1477 1476 1475 1474 1472 1471 1469 1467 1465 1463
1458 1460 1464 1466 1463 1465 1465 1465 1466 1467 1469 1470 1470 1470 1470 1469 1469 1469 1470 1470 1471 1471 1471 1471 1472 1472 1472 1473 1474 1474 1475 1474 1474 1473 1472 1471 1470 1468 1466 1464 1462 1460 1459 1456